This is the latest recevied weather packets stored in our database for station/object W1REE. If no packets are shown the sender has not sent any weather packets the latest 10 day(s).
| Time | Temp. | Humidity | Pressure | Rain* | Wind** | Luminosity | Snow |
|---|---|---|---|---|---|---|---|
| 1777421995 | 12.22° C | 44% | 1019 hPa | 0 mm | - | 31 W/m² | - |
| 1777421689 | 12.22° C | 44% | 1019.2 hPa | 0 mm | - | 58 W/m² | - |
| 1777421384 | 12.22° C | 45% | 1019 hPa | 0 mm | - | 68 W/m² | - |
| 1777421082 | 12.22° C | 45% | 1019 hPa | 0 mm | - | 90 W/m² | - |
| 1777420778 | 12.22° C | 45% | 1019 hPa | 0 mm | - | 46 W/m² | - |
| 1777420474 | 12.22° C | 45% | 1018.7 hPa | 0 mm | - | 40 W/m² | - |
| 1777420171 | 12.22° C | 45% | 1018.6 hPa | 0 mm | - | 38 W/m² | - |
| 1777419867 | 12.22° C | 45% | 1018.7 hPa | 0 mm | - | 47 W/m² | - |
| 1777419564 | 12.22° C | 46% | 1018.3 hPa | 0 mm | - | 82 W/m² | - |
| 1777419263 | 12.22° C | 44% | 1018.7 hPa | 0 mm | - | 61 W/m² | - |
| 1777418960 | 12.22° C | 44% | 1018.4 hPa | 0 mm | - | 59 W/m² | - |
| 1777418655 | 12.78° C | 44% | 1018.6 hPa | 0 mm | - | 99 W/m² | - |
| 1777418352 | 12.78° C | 45% | 1018.3 hPa | 0 mm | - | 55 W/m² | - |
| 1777418048 | 12.78° C | 45% | 1018.2 hPa | 0 mm | - | 159 W/m² | - |
| 1777417743 | 12.78° C | 46% | 1017.8 hPa | 0 mm | - | 169 W/m² | - |
| 1777417439 | 12.78° C | 45% | 1017.8 hPa | 0 mm | - | 157 W/m² | - |
| 1777417136 | 12.78° C | 45% | 1018 hPa | 0 mm | - | 158 W/m² | - |
| 1777416831 | 12.78° C | 46% | 1017.8 hPa | 0 mm | - | 131 W/m² | - |
| 1777416527 | 12.78° C | 45% | 1017.7 hPa | 0 mm | - | 121 W/m² | - |
| 1777416224 | 13.33° C | 44% | 1017.6 hPa | 0 mm | - | 143 W/m² | - |
| 1777415923 | 13.33° C | 45% | 1017.8 hPa | 0 mm | - | 147 W/m² | - |
| 1777415619 | 12.78° C | 45% | 1017.7 hPa | 0 mm | - | 320 W/m² | - |
| 1777415314 | 12.78° C | 44% | 1017.5 hPa | 0 mm | - | 164 W/m² | - |
| 1777415010 | 12.78° C | 43% | 1017.6 hPa | 0 mm | - | 251 W/m² | - |
| 1777414708 | 12.78° C | 44% | 1017.5 hPa | 0 mm | - | 550 W/m² | - |
* Rain latest hour (hover to see other rain measurements)
** Current wind speed in m/s (hover to see current wind gust speed)